This demonstration page uses our WeatherBlox Daily Observations layout. Learn more.

Hourly Observations for March 4, 2015

Temp ( °F °C ) Dew Point ( °F °C ) Humidity (%) Winds ( mph kmh ) Pressure ( in mb ) Visibility ( mi km ) Precip ( " mm )
12:15 am 00:15 Cloudy with Light Snow 17 -8.2 14 -9.8 88 88 N 13 20 30.3 1026 2 3.21868 0 0
12:35 am 00:35 Cloudy with Light Snow 17 -8.3 14 -10 88 88 NNE 12 19 30.3 1026 1.75 2.816345 0.01 0.254
12:55 am 00:55 Cloudy with Light Snow 17 -8.3 14 -10 88 88 N 9 15 30.3 1026 2.5 4.02335 0.01 0.254
1:15 am 01:15 Cloudy with Light Snow 17 -8.3 14 -9.8 89 89 NNE 9 15 30.3 1026 2.5 4.02335 0 0
1:35 am 01:35 Cloudy with Light Snow 17 -8.3 14 -9.8 89 89 N 8 13 30.3 1026 2 3.21868 0 0
1:55 am 01:55 Cloudy with Light Snow 17 -8.3 14 -9.8 89 89 N 7 11 30.3 1026 3 4.82802 0 0
2:15 am 02:15 Cloudy with Light Snow 17 -8.3 14 -10 88 88 N 9 15 30.3 1026 4 6.43736 0 0
2:35 am 02:35 Cloudy 17 -8.4 13 -10.5 85 85 N 8 13 30.3 1026 10 16.0934 0 0
2:55 am 02:55 Mostly Cloudy 16 -8.7 12 -11.1 83 83 N 7 11 30.33 1027 10 16.0934 0 0
3:15 am 03:15 Mostly Cloudy 16 -9 12 -11.2 84 84 N 8 13 30.33 1027 10 16.0934 0 0
3:35 am 03:35 Mostly Cloudy 16 -9 12 -11.3 84 84 N 6 9 30.33 1027 10 16.0934 0 0
3:55 am 03:55 Mostly Cloudy 15 -9.2 12 -11.3 85 85 N 5 7 30.33 1027 10 16.0934 0 0
4:15 am 04:15 Cloudy 16 -9.1 12 -11.1 86 86 NNW 6 9 30.33 1027 10 16.0934 0 0
4:35 am 04:35 Cloudy 15 -9.2 11 -11.5 84 84 NNW 5 7 30.36 1028 10 16.0934 0 0
4:55 am 04:55 Cloudy 15 -9.4 11 -11.7 84 84 NNW 5 7 30.36 1028 10 16.0934 0 0
5:15 am 05:15 Cloudy 15 -9.5 11 -11.8 84 84 NW 5 7 30.36 1028 10 16.0934 0 0
5:35 am 05:35 Cloudy 14 -10 11 -11.9 86 86 WNW 5 7 30.39 1029 10 16.0934 0 0
5:55 am 05:55 Mostly Cloudy 13 -10.4 10 -12.4 85 85 WNW 6 9 30.39 1029 10 16.0934 0 0
6:15 am 06:15 Mostly Cloudy 11 -11.8 8 -13.6 87 87 WNW 6 9 30.42 1030 10 16.0934 0 0
6:35 am 06:35 Mostly Cloudy 10 -12.1 7 -13.7 88 88 WNW 6 9 30.42 1030 10 16.0934 0 0
6:55 am 06:55 Mostly Cloudy 10 -12.4 7 -13.9 89 89 WNW 5 7 30.42 1030 10 16.0934 0 0
7:15 am 07:15 Mostly Cloudy 10 -12.3 7 -13.8 89 89 WNW 5 7 30.45 1031 10 16.0934 0 0
7:35 am 07:35 Mostly Cloudy 10 -12 8 -13.5 89 89 WNW 6 9 30.45 1031 10 16.0934 0 0
7:55 am 07:55 Cloudy 12 -11 9 -13 85 85 WNW 5 7 30.45 1031 10 16.0934 0 0
8:15 am 08:15 Cloudy 14 -10 10 -12.5 82 82 WNW 7 11 30.42 1030 10 16.0934 0 0
8:35 am 08:35 Mostly Cloudy 14 -9.8 10 -12.5 81 81 WNW 7 11 30.42 1030 10 16.0934 0 0
8:55 am 08:55 Partly Cloudy 15 -9.6 10 -12.5 80 80 WNW 6 9 30.45 1031 10 16.0934 0 0
9:15 am 09:15 Sunny 15 -9.2 10 -12.5 77 77 WNW 6 9 30.45 1031 10 16.0934 0 0
9:35 am 09:35 Partly Cloudy 17 -8.4 10 -12 76 76 WNW 5 7 30.48 1032 10 16.0934 0 0
9:55 am 09:55 Partly Cloudy 18 -7.9 11 -11.8 74 74 WNW 7 11 30.48 1032 10 16.0934 0 0
10:15 am 10:15 Partly Cloudy 19 -7.5 10 -12.4 68 68 WNW 7 11 30.48 1032 10 16.0934 0 0
10:35 am 10:35 Partly Cloudy 20 -6.9 10 -12 67 67 NW 6 9 30.48 1032 10 16.0934 0 0
10:55 am 10:55 Sunny 21 -6.3 10 -12.4 62 62 WNW 8 13 30.45 1031 10 16.0934 0 0
11:15 am 11:15 Sunny 22 -5.6 9 -12.6 58 58 NW 9 15 30.45 1031 10 16.0934 0 0
11:35 am 11:35 Sunny 23 -5.1 8 -13.2 53 53 NW 12 19 30.42 1030 10 16.0934 0 0
11:55 am 11:55 Sunny 23 -4.8 9 -13 53 53 NW 8 13 30.45 1031 10 16.0934 0 0
12:15 pm 12:15 Sunny 24 -4.6 8 -13.6 50 50 NW 10 17 30.42 1030 10 16.0934 0 0
12:35 pm 12:35 Sunny 24 -4.2 7 -13.9 47 47 WNW 12 19 30.39 1029 10 16.0934 0 0
1:15 pm 13:15 Partly Cloudy 26 -3.5 9 -13 48 48 NW 12 19 30.39 1029 10 16.0934 0 0
1:35 pm 13:35 Partly Cloudy 27 -3 9 -13 46 46 NW 13 20 30.39 1029 10 16.0934 0 0
1:55 pm 13:55 Partly Cloudy 26 -3.1 8 -13.4 45 45 NNW 13 20 30.36 1028 10 16.0934 0 0
2:15 pm 14:15 Partly Cloudy 27 -2.8 10 -12.4 48 48 WNW 9 15 30.36 1028 10 16.0934 0 0
2:35 pm 14:35 Partly Cloudy 28 -2.4 8 -13.2 44 44 NW 9 15 30.36 1028 10 16.0934 0 0
2:55 pm 14:55 Partly Cloudy 28 -2.1 8 -13.6 41 41 WNW 13 20 30.36 1028 10 16.0934 0 0
3:15 pm 15:15 Partly Cloudy 28 -2 7 -13.8 40 40 WNW 12 19 30.36 1028 10 16.0934 0 0
3:35 pm 15:35 Partly Cloudy 29 -1.4 9 -13 41 41 NNW 10 17 30.33 1027 10 16.0934 0 0
3:55 pm 15:55 Partly Cloudy 29 -1.5 8 -13.3 41 41 NNW 10 17 30.33 1027 10 16.0934 0 0
4:15 pm 16:15 Partly Cloudy 29 -1.5 7 -14.1 38 38 NNW 15 24 30.3 1026 10 16.0934 0 0
4:35 pm 16:35 Cloudy 29 -1.6 7 -13.9 39 39 NNW 13 20 30.33 1027 10 16.0934 0 0
4:55 pm 16:55 Mostly Cloudy 29 -1.9 6 -14.2 39 39 NNW 14 22 30.33 1027 10 16.0934 0 0
5:15 pm 17:15 Partly Cloudy 28 -2.5 6 -14.5 40 40 NNW 9 15 30.33 1027 10 16.0934 0 0
5:35 pm 17:35 Sunny 27 -2.6 6 -14.3 41 41 N 9 15 30.36 1028 10 16.0934 0 0
5:55 pm 17:55 Sunny 28 -2.2 7 -14 40 40 NNW 8 13 30.36 1028 10 16.0934 0 0
6:15 pm 18:15 Sunny 27 -3 7 -13.9 43 43 N 8 13 30.36 1028 10 16.0934 0 0
6:35 pm 18:35 Clear 25 -4.1 7 -14.1 46 46 NNW 6 9 30.39 1029 10 16.0934 0 0
6:55 pm 18:55 Clear 23 -4.8 5 -14.9 45 45 N 7 11 30.42 1030 10 16.0934 0 0
7:15 pm 19:15 Clear 19 -7.5 5 -15.1 55 55 N 6 9 30.48 1032 10 16.0934 0 0
7:35 pm 19:35 Clear 15 -9.3 4 -15.3 62 62 NNE 6 9 30.48 1032 10 16.0934 0 0
7:55 pm 19:55 Clear 16 -8.8 5 -15.2 60 60 NNE 7 11 30.48 1032 10 16.0934 0 0
8:15 pm 20:15 Clear 14 -9.8 3 -16 61 61 NNE 7 11 30.53 1034 10 16.0934 0 0
8:35 pm 20:35 Clear 13 -10.5 2 -16.8 60 60 NE 8 13 30.53 1034 10 16.0934 0 0
8:55 pm 20:55 Clear 13 -10.4 2 -16.5 61 61 ENE 9 15 30.53 1034 10 16.0934 0 0
9:15 pm 21:15 Clear 14 -10.1 2 -16.8 58 58 NE 6 9 30.53 1034 10 16.0934 0 0
9:35 pm 21:35 Clear 12 -11 1 -17.4 60 60 ENE 8 13 30.53 1034 10 16.0934 0 0
9:55 pm 21:55 Clear 10 -12.2 0 -17.6 64 64 ENE 6 9 30.56 1035 10 16.0934 0 0
10:15 pm 22:15 Clear 11 -11.8 1 -17.4 63 63 NE 5 7 30.56 1035 10 16.0934 0 0
10:35 pm 22:35 Clear 8 -13.1 0 -17.9 68 68 NE 7 11 30.59 1036 10 16.0934 0 0
10:55 pm 22:55 Clear 7 -13.7 -1 -18.1 70 70 ENE 7 11 30.62 1037 10 16.0934 0 0
11:15 pm 23:15 Partly Cloudy 10 -12 1 -17 67 67 ENE 8 13 30.62 1037 10 16.0934 0 0
11:35 pm 23:35 Partly Cloudy 9 -12.8 1 -17.4 69 69 ENE 10 17 30.62 1037 10 16.0934 0 0
11:55 pm 23:55 Clear 9 -12.8 0 -17.9 66 66 ENE 7 11 30.62 1037 10 16.0934 0 0

Powered by AerisWeather